Regional Weather Roundup
Issued by NWS Upton, NY

Current Version | Previous Version | Graphics & Text | Print | Product List | Glossary Off
Versions: 1 2 3 4 5 6 7 8 9 10 11 12 13 14 15 16 17 18 19 20 21 22 23 24 25 26 27 28 29 30

000
ASUS41 KOKX 230609
RWROKX

REGIONAL WEATHER ROUNDUP
NATIONAL WEATHER SERVICE NEW YORK NY
200 AM EDT MON OCT 23 2017

NOTE: "FAIR" INDICATES FEW OR NO CLOUDS BELOW 12,000 FEET WITH NO
SIGNIFICANT WEATHER AND/OR OBSTRUCTIONS TO VISIBILITY.

NYZ071-072-176-178-NJZ106-104-230700-
NEW YORK CITY METRO AREA

CITY           SKY/WX    TMP DP  RH WIND       PRES   REMARKS
Central Park   CLEAR     62  59  90 CALM      30.37F
Bronx Bot Gard   N/A     55  55 100 CALM      30.36F
LaGuardia APRT MOCLDY    62  59  90 CALM      30.35S
Kennedy INTL   MOCLDY    58  58 100 SE5       30.36F
Breezy Point     N/A     63 N/A N/A SE6         N/A
Newark/Liberty MOCLDY    60  58  92 CALM      30.34F
Teterboro      PTCLDY    59  51  75 N3        30.34F
$$

NYZ177-179-078>081-230700-
LONG ISLAND NEW YORK

CITY           SKY/WX    TMP DP  RH WIND       PRES   REMARKS
Jones Beach      N/A     63 N/A N/A S7          N/A
Matinecock PT    N/A     59 N/A N/A CALM        N/A
Farmingdale    CLEAR     53  52  96 CALM      30.36F
MacArthur/ISP  CLEAR     54  54 100 CALM      30.36F
Shirley        CLEAR     52  50  93 CALM      30.37F
Mt Sinai Harb    N/A    N/A N/A N/A S5          N/A
Westhampton    CLOUDY    44  41  89 CALM      30.39F FOG
East Hampton   MOCLDY    46  45  98 CALM      30.38S
Montauk          N/A     59  59 100 CALM      30.40F
$$

NYZ052-065-067-230700-
HUDSON VALLEY

CITY           SKY/WX    TMP DP  RH WIND       PRES   REMARKS
White Plains   FOG       52  51  97 CALM      30.35F VSB 1/4
Larchmont Harb   N/A     57 N/A N/A MISG        N/A
Croton On Huds   N/A     54 N/A N/A MISG        N/A
Newburgh       CLEAR     50  46  87 CALM      30.36F
Montgomery     CLEAR     44  42  93 CALM      30.34F
Poughkeepsie   CLEAR     46  42  86 CALM      30.34F
Albany         PTCLDY    49  42  77 CALM      30.31F
$$

NJZ001-105-106-008-010-013-015-019>022-104-230700-
NEW JERSEY

CITY           SKY/WX    TMP DP  RH WIND       PRES   REMARKS
Newark/Liberty MOCLDY    60  58  92 CALM      30.34F
Teterboro      PTCLDY    59  51  75 N3        30.34F
Caldwell       CLOUDY    53  53 100 CALM      30.35F
Somerville     PTCLDY    49  48  97 CALM      30.32F
Linden         CLOUDY    58  54  86 CALM      30.34F
Perth Amboy      N/A     59 N/A N/A SE1         N/A
Sussex         CLOUDY    48  48 100 CALM      30.34F
Andover          N/A     49  48  97 CALM      30.34F
Trenton        CLOUDY    57  55  93 SE5       30.33F
Millville      MOCLDY    63  63 100 SE5       30.31F
Atlantic City  PTCLDY    61  61 100 SE5       30.33F
Wrightstown    FOG       55  55  98 CALM      30.31F VSB 1/4
Toms River     FOG       49  49 100 CALM      30.34F VSB 1/4
Belmar         CLOUDY    60  59  96 E5        30.35F
$$

PAZ047>061-062-071-230700-
EASTERN PENNSYLVANIA

CITY           SKY/WX    TMP DP  RH WIND       PRES   REMARKS
Philadelphia   CLOUDY    62  59  90 E5        30.33S
Allentown      CLOUDY    58  50  75 NE5       30.33F
Scranton       PTCLDY    56  44  64 CALM      30.31F
$$

CTZ002-004>006-009-010-012-RIZ004-006-007-MAZ004-011-015-230700-
SOUTHERN NEW ENGLAND
 IN CT

CITY           SKY/WX    TMP DP  RH WIND       PRES   REMARKS
Bradley INTL   PTCLDY    46  45  96 CALM      30.37F
Hartford       CLEAR     48  47  96 CALM      30.38R FOG
Danbury        MOCLDY    46  44  93 CALM      30.37F
Wtrbury/Oxford CLEAR     52  52 100 S3        30.38F
Norwalk Harbor   N/A     54 N/A N/A N3          N/A
Bridgeport     CLEAR     54  51  90 CALM      30.36F
Meriden        CLEAR     44  44 100 CALM      30.37F FOG
New Haven      CLEAR     49  47  93 N3        30.37F
Chester        FOG       55  55 100 CALM      30.38S VSB<1/4
Groton         PTCLDY    52  50  93 NW3       30.38F FOG
Wilimantic     CLEAR     48  46  93 CALM      30.39F

 IN RI

CITY           SKY/WX    TMP DP  RH WIND       PRES   REMARKS
Providence     CLOUDY    51  50  96 CALM      30.40F FOG
Block Island   PTCLDY    59  57  93 S8        30.39F
Westerly       FOG       51  50  96 CALM      30.39F VSB 1/4
 IN MA

CITY           SKY/WX    TMP DP  RH WIND       PRES   REMARKS
Boston         CLOUDY    55  55 100 CALM      30.40F
Worcester      FOG       50  49  96 CALM      30.39F VSB<1/4
Westfield      CLEAR     43  43 100 CALM      30.37S FOG
Provincetown   LGT RAIN  56  55  97 W5        30.41F VSB 1/4
Nantucket      FOG       55  55 100 S3        30.40F VSB 1/4
$$

ANZ330-335-338-340-345-350-353-355-230700-
COASTAL MARINE OBSERVATIONS


STATION/POSITION TIME  SKY/WX   TEMP    WIND        PRES    VSBY  WAVE
                                AIR SEA DIR/SP/G                  HT/PER
                 (UTC)          (F)     (DEG/KT/KT) (MB)    (MI)  (FT/S)
NY HARB ENTRANCE 0450            65 65  140/  6/  8 1027.6          2/10
20 S FIRE ISLAND 0550            64 64  160/ 10/ 12 1027.9          2/ 8
GREAT SOUTH BAY  0515            63 62  160/  8/ 10   N/A
15 E BARNEGAT LI NOT AVBL
HUDSON CANYON    0450            65 64  120/  8/ 10 1028.1          2/ 8
KINGS POINT      0542            60 66   CALM  /  2 1028.5
EXECUTION ROCKS  0530            62     150/  2/  4   N/A
WESTERN LI SOUND 0449            62     140/  8/ 10   N/A           0
CENTRAL LI SOUND NOT AVBL
EASTERN LI SOUND NOT AVBL
ROBBINS REEF     0548            63     140/  6/  7 1028.2
$$


>>>>>>>>>>>>>>>>>>>>>>>>>>>> KEY <<<<<<<<<<<<<<<<<<<<<<<<<<<
>                                                          <
>     SKY/WX - Sky Condition/Present Weather               <
>     TMP    - Temperature in Fahrenheit                   <
>     DP     - Dew Point in Fahrenheit                     <
>     RH     - Relative Humidity in Percent                <
>     WIND   - Direction (from) and Speed in MPH           <
>     PRES   - Mean Sea Level Pressure (inches of Hg)      <
>     WCI    - Wind Chill Index                            <
>     VSB    - VISIBILITY IN MILES                         <
>     HX     - HEAT INDEX                                  <
>     TC     - TEMPERATURE IN CELSIUS                      <
>     VRB    - VARIABLE WIND DIRECTION                     <
>                                                          <
>>>>>>>>>>>>>>>>>>>>>>>>>>>> KEY <<<<<<<<<<<<<<<<<<<<<<<<<<<




USA.gov is the U.S. government's official web portal to all federal, state and local government web resources and services.